Flag for U.S.A. Weather past 2 weeks in State College, Pennsylvania, U.S.A.

Now
70 °F

Scattered clouds.


Feels Like: 70 °F
Forecast: 58 / 73 °F
Wind: 7 mph from Southwest

Location: University Park Airport

Current Time: Sep 20, 2014 at 8:06:52 PM

Latest Report: Sep 20, 2014 at 6:53 PM


Visibility: 10 mi

Pressure: 30.02 "Hg

Humidity: 69%

Dew point: 59 °F

Location of State CollegeLocation

Historic Weather in State College — Graph

°F

State College temperature yesterday

Maximum temperature yesterday: 66 °F (at 2:53 PM)
Minimum temperature yesterday: 46 °F (at 5:53 AM)
Average temperature yesterday: 55 °F

Past Weeks' High & Low Weather Summary

 TemperatureHumidityPressure
High81 °F (Sep 6, 11:53 AM)100% (Sep 7, 5:53 AM)30.35 "Hg (Sep 7, 5:53 AM)
Low41 °F (Sep 15, 6:53 AM)40% (Sep 18, 4:53 PM)29.84 "Hg (Sep 11, 4:35 AM)
Average59 °F82%30.13 "Hg
* Reported Sep 5 5:53 PM — Sep 20 5:53 PM, State College, Weather by CustomWeather, © 2014

Note: Actual official high and low records may vary slightly from our data, if they occured in-between our weather recording intervals... More about our weather records

Advertising

State College weather history for previous 24 hours

 ConditionsComfort  
Time TempWeatherWind HumidityBarometerVisibility
5:53 PM
Sep 20
72 °FPassing clouds.7 mph65%30.04 "Hg10 mi
4:53 PM73 °FPassing clouds.10 mph61%30.06 "Hg10 mi
3:53 PM75 °FScattered clouds.12 mph57%30.07 "Hg10 mi
2:53 PM73 °FScattered clouds.12 mph61%30.10 "Hg10 mi
1:53 PM72 °FPartly sunny.9 mph65%30.12 "Hg10 mi
8:53 AM63 °FMostly cloudy.10 mph83%30.22 "Hg10 mi
7:53 AM63 °FMostly cloudy.10 mph83%30.22 "Hg10 mi
6:53 AM61 °FOvercast.7 mph88%30.22 "Hg10 mi
5:53 AM61 °FOvercast.9 mph88%30.22 "Hg10 mi
5:15 AM61 °FOvercast.8 mph84%30.22 "Hg10 mi
4:55 AM62 °FMostly cloudy.7 mph83%30.22 "Hg10 mi
4:35 AM61 °FMostly cloudy.6 mph83%30.22 "Hg10 mi
4:15 AM62 °FOvercast.7 mph81%30.23 "Hg10 mi
3:55 AM62 °FMostly cloudy.9 mph81%30.23 "Hg10 mi
3:35 AM62 °FOvercast.9 mph81%30.23 "Hg10 mi
3:15 AM61 °FMostly cloudy.7 mph82%30.23 "Hg10 mi
2:55 AM61 °FOvercast.7 mph81%30.23 "Hg10 mi
2:35 AM61 °FMostly cloudy.7 mph81%30.24 "Hg10 mi
2:15 AM61 °FMostly cloudy.8 mph80%30.24 "Hg10 mi
1:55 AM61 °FOvercast.5 mph80%30.25 "Hg10 mi
1:35 AM61 °FMostly cloudy.8 mph80%30.25 "Hg10 mi
1:15 AM62 °FMostly cloudy.6 mph79%30.25 "Hg10 mi
12:55 AM61 °FOvercast.3 mph80%30.25 "Hg10 mi
12:35 AM61 °FMostly cloudy.No wind79%30.25 "Hg10 mi
12:15 AM61 °FMostly cloudy.5 mph78%30.25 "Hg10 mi
11:55 PM
Sep 19
61 °FMostly cloudy.5 mph78%30.24 "Hg10 mi
11:15 PM61 °FMostly cloudy.6 mph77%30.25 "Hg10 mi
10:55 PM61 °FMostly cloudy.No wind75%30.25 "Hg10 mi
10:35 PM61 °FOvercast.No wind75%30.25 "Hg10 mi
10:15 PM61 °FOvercast.No wind74%30.25 "Hg10 mi
9:55 PM61 °FOvercast.5 mph72%30.25 "Hg10 mi
8:53 PM61 °FPassing clouds.No wind72%30.26 "Hg10 mi
Weather by CustomWeather, © 2014

See weather overviewHow to use our weather pages